[[{"header":{"parameterUnit":"m.s-1","parameterCategory":1,"la1":30.2991,"la2":30.254,"lo1":-89.0895,"lo2":-89.0444,"dy":0.0017,"dx":0.0017,"nx":28,"ny":28,"refTime":"2024-08-17T21:00:00:Z","depth":0,"parameterNumber":2,"parameterNumberName":"U-component_of_WINDS"},"data":[0,0,0,0,0,0,0,0,0,0,0,0,0,0,0,0,0,0,0,0,0,0,0,0,0,0,0,0,0,0,0,0,0,0,0,0,0,0,0,0,0,0,0,0,0,0,0,0,0,0,0,0,0,0,0,0,0,0,2.0756,2.0758,0,2.0896,2.0898,2.09,2.098,2.098,2.098,2.0981,2.1122,2.1126,2.1129,0,0,0,0,0,0,0,0,0,0,0,0,0,2.0558,2.0561,2.0756,2.0758,2.076,2.0896,2.0898,2.09,2.098,2.098,2.098,2.0981,2.1121,2.1125,2.1129,0,0,0,0,0,0,0,0,0,0,0,0,0,2.0665,2.0562,2.0756,2.0816,2.0823,2.0896,2.0898,2.09,2.098,2.098,2.098,2.0981,2.112,2.1125,2.113,2.1153,0,0,2.1146,2.1148,0,0,0,0,0,0,0,0,2.0659,2.0673,2.0805,2.0812,2.082,2.0921,2.088,2.0985,2.0979,2.092,2.0981,2.0981,2.1055,2.1065,2.1091,2.116,2.1166,2.1146,2.115,2.1152,2.1153,0,0,0,0,0,0,0,2.0652,2.0667,2.0812,2.0807,2.0816,2.0836,2.0852,2.09,2.0983,2.0925,2.0931,2.0947,2.1059,2.1085,2.1095,2.1168,2.1146,2.1151,2.1154,2.1156,2.1266,2.1266,0,0,0,0,0,0,2.0635,2.066,2.0807,2.0816,2.0739,2.0839,2.0857,2.0888,2.0983,2.0998,2.0946,2.095,2.1076,2.1088,2.11,2.1135,2.1152,2.1157,2.116,2.1267,2.1266,2.1266,0,0,0,0,0,0,2.063,2.0647,2.0802,2.074,2.0761,2.0842,2.0877,2.0891,2.0917,2.0999,2.1014,2.0958,2.1077,2.1092,2.114,2.1141,2.1159,2.1164,2.1267,2.1267,2.1266,2.1204,0,0,0,0,0,0,2.0624,2.0645,2.0655,2.074,2.0764,2.0839,2.0877,2.0893,2.0926,2.0933,2.1014,2.1028,2.1079,2.1132,2.1145,2.1149,2.1168,2.1267,2.1267,2.1266,2.1207,2.1202,2.1198,0,0,0,0,0,2.0617,2.0631,2.0655,2.0672,2.0778,2.0839,2.0853,2.0911,2.0926,2.0937,2.0989,2.1025,2.1139,2.1136,2.1152,2.1157,2.1267,2.1267,2.1266,2.1209,2.1203,2.1198,0,0,0,0,0,0,2.0542,2.0643,2.067,2.0712,2.0767,2.0853,2.0867,2.0903,2.0954,2.0958,2.1028,2.1045,2.1087,2.1127,2.1122,2.1186,2.1207,2.121,2.1158,2.1153,2.1149,2.1138,2.1172,0,0,0,0,0,2.0531,2.0573,2.0658,2.0687,2.0713,2.0785,2.0814,2.0855,2.0914,2.0937,2.0993,2.1048,2.1097,2.1127,2.1176,2.1213,2.1233,2.1224,2.122,2.1216,2.1217,2.1241,2.1239,2.1265,2.1265,2.1265,0,0,2.0508,2.0568,2.0589,2.0674,2.072,2.0762,2.0804,2.0846,2.0878,2.0943,2.0992,2.1035,2.1102,2.1145,2.1166,2.1179,2.1215,2.1215,2.1211,2.1215,2.1241,2.1238,2.1236,2.1264,2.1264,2.1264,0,0,2.0486,2.0536,2.0566,2.0613,2.0684,2.0732,2.0739,2.0821,2.0852,2.0903,2.0953,2.0992,2.1073,2.112,2.1153,2.1152,2.1188,2.1166,2.1143,2.1166,2.1164,2.1162,2.1163,2.1162,2.1167,2.1167,2.1167,0,2.0448,2.0513,2.0577,2.0617,2.0652,2.0715,2.0746,2.0788,2.0871,2.0895,2.0908,2.1014,2.1063,2.1118,2.1118,2.1143,2.1154,2.1157,2.1159,2.1158,2.1158,2.1159,2.1159,2.1164,2.1165,2.1165,2.1165,0,2.0463,2.0508,2.0524,2.0604,2.0642,2.0676,2.0746,2.0776,2.0814,2.0861,2.0913,2.0974,2.1038,2.1054,2.109,2.1115,2.1121,2.1146,2.1169,2.1151,2.1154,2.1154,2.116,2.1161,2.1162,2.1163,0,0,2.0397,2.0514,2.0518,2.0556,2.064,2.0676,2.0715,2.0778,2.0803,2.0859,2.0893,2.0962,2.0987,2.1025,2.1068,2.1088,2.1084,2.1111,2.1113,2.1104,2.1116,2.1097,2.1096,2.1109,2.1109,2.1109,2.1111,0,2.0389,2.0462,2.0521,2.0571,2.0614,2.0675,2.0709,2.0764,2.081,2.0853,2.0903,2.0951,2.0979,2.1003,2.1026,2.108,2.1088,2.108,2.1142,2.1143,2.1123,2.1097,2.1077,2.1075,2.1112,2.1112,2.1112,0,2.0388,2.0443,2.0498,2.0579,2.0599,2.0629,2.0692,2.0732,2.0797,2.0829,2.0873,2.0918,2.0963,2.0982,2.1044,2.1038,2.1067,2.1098,2.1099,2.1107,2.1126,2.1104,2.1076,2.1075,2.1114,2.1114,2.1114,0,2.0335,2.0422,2.0467,2.0498,2.0594,2.0613,2.0654,2.0719,2.0754,2.081,2.0833,2.0892,2.0925,2.097,2.1031,2.1039,2.1087,2.1111,2.1115,2.1114,2.1122,2.112,2.1097,2.114,2.114,2.114,2.114,0,2.0319,2.035,2.0445,2.0473,2.051,2.0578,2.0614,2.066,2.0718,2.0756,2.0812,2.0846,2.0924,2.0968,2.1015,2.1061,2.1075,2.1102,2.1114,2.1097,2.1093,2.1116,2.1118,2.114,2.114,2.114,2.114,0,2.0266,2.033,2.0384,2.0471,2.0494,2.0518,2.0593,2.0622,2.0672,2.0719,2.0734,2.0812,2.0866,2.0931,2.1007,2.1039,2.108,2.1098,2.1058,2.1065,2.1066,2.1065,2.1057,2.1059,2.11,2.1099,2.1099,0,2.0251,2.0277,2.0368,2.0398,2.0437,2.0484,2.0521,2.0589,2.0625,2.0702,2.0722,2.0781,2.0832,2.0917,2.098,2.1039,2.1059,2.1052,2.1068,2.1051,2.106,2.1057,2.1061,2.1048,2.1047,2.1046,2.1046,0,2.0218,2.025,2.03,2.0362,2.0404,2.0456,2.051,2.0531,2.0611,2.0648,2.0706,2.0745,2.0824,2.0882,2.0949,2.0992,2.1032,2.104,2.1045,2.1027,2.1003,2.1017,2.1047,2.104,2.1041,2.1041,2.1041,2.1042,2.0185,2.0211,2.028,2.0334,2.0383,2.0433,2.0465,2.0519,2.0569,2.0638,2.0676,2.0732,2.0799,2.0893,2.0934,2.098,2.0994,2.1,2.1001,2.1001,2.0997,2.0996,2.0992,2.0993,2.0993,2.0993,2.0993,0,2.0155,2.0203,2.0252,2.0327,2.0371,2.0406,2.0469,2.0502,2.0552,2.061,2.066,2.0727,2.0784,2.0853,2.0915,2.0939,2.0959,2.0953,2.0951,2.0961,2.098,2.0971,2.0935,2.0935,2.0935,2.0935,2.0935,2.0935,2.0145,2.0192,2.0232,2.0304,2.0352,2.0408,2.0441,2.0488,2.0535,2.0607,2.0656,2.07,2.0763,2.0831,2.0886,2.0905,2.0925,2.0913,2.0937,2.0954,2.0959,2.0964,2.0955,2.0917,2.0917,2.0914,2.0914,2.0914]},{"header":{"parameterUnit":"m.s-1","parameterCategory":1,"la1":30.2991,"la2":30.254,"lo1":-89.0895,"lo2":-89.0444,"dy":0.0017,"dx":0.0017,"nx":28,"ny":28,"refTime":"2024-08-17T21:00:00:Z","depth":0,"parameterNumber":3,"parameterNumberName":"V-component_of_WINDS"},"data":[0,0,0,0,0,0,0,0,0,0,0,0,0,0,0,0,0,0,0,0,0,0,0,0,0,0,0,0,0,0,0,0,0,0,0,0,0,0,0,0,0,0,0,0,0,0,0,0,0,0,0,0,0,0,0,0,0,0,-7.5395,-7.5395,0,-7.5405,-7.5405,-7.5405,-7.5303,-7.53,-7.5297,-7.5295,-7.5303,-7.5306,-7.5309,0,0,0,0,0,0,0,0,0,0,0,0,0,-7.5288,-7.529,-7.5395,-7.5395,-7.5395,-7.5405,-7.5405,-7.5405,-7.5303,-7.53,-7.5296,-7.5293,-7.5303,-7.5306,-7.5309,0,0,0,0,0,0,0,0,0,0,0,0,0,-7.532,-7.5291,-7.5395,-7.5345,-7.5341,-7.5405,-7.5405,-7.5405,-7.5304,-7.53,-7.5296,-7.5292,-7.5301,-7.5306,-7.531,-7.5421,0,0,-7.5323,-7.5325,0,0,0,0,0,0,0,0,-7.5318,-7.5324,-7.5353,-7.5349,-7.5344,-7.5348,-7.537,-7.541,-7.5305,-7.5318,-7.5294,-7.529,-7.5322,-7.5324,-7.5335,-7.5421,-7.5422,-7.5323,-7.5326,-7.5328,-7.5329,0,0,0,0,0,0,0,-7.5316,-7.5323,-7.5399,-7.5353,-7.5348,-7.5323,-7.5323,-7.5378,-7.5343,-7.5317,-7.5309,-7.5312,-7.5319,-7.5331,-7.5335,-7.5422,-7.5323,-7.5327,-7.533,-7.5331,-7.5603,-7.5607,0,0,0,0,0,0,-7.532,-7.5321,-7.5398,-7.5399,-7.532,-7.5328,-7.5328,-7.5351,-7.5343,-7.5337,-7.5316,-7.5307,-7.5326,-7.533,-7.5335,-7.5466,-7.5328,-7.5332,-7.5334,-7.5598,-7.5604,-7.5609,0,0,0,0,0,0,-7.5318,-7.5328,-7.5398,-7.5358,-7.5365,-7.5335,-7.5361,-7.5354,-7.5366,-7.5342,-7.5335,-7.5335,-7.5323,-7.5329,-7.5401,-7.5465,-7.5334,-7.5338,-7.5593,-7.56,-7.5606,-7.5729,0,0,0,0,0,0,-7.5316,-7.5328,-7.537,-7.536,-7.5368,-7.5465,-7.5365,-7.5357,-7.5374,-7.5363,-7.5358,-7.5353,-7.532,-7.5395,-7.5405,-7.5468,-7.5341,-7.5587,-7.5596,-7.5604,-7.5719,-7.5739,-7.5756,0,0,0,0,0,-7.5312,-7.5403,-7.5372,-7.5382,-7.5419,-7.5468,-7.5473,-7.5433,-7.538,-7.5422,-7.5406,-7.5353,-7.5456,-7.5403,-7.5414,-7.5479,-7.5582,-7.5593,-7.5603,-7.5711,-7.5735,-7.5756,0,0,0,0,0,0,-7.5419,-7.5401,-7.5366,-7.5457,-7.5465,-7.5451,-7.5502,-7.546,-7.5483,-7.5472,-7.5421,-7.5421,-7.5503,-7.5498,-7.5439,-7.5588,-7.551,-7.5523,-7.5588,-7.5611,-7.563,-7.5629,-7.5344,0,0,0,0,0,-7.5454,-7.5495,-7.5476,-7.5558,-7.5564,-7.5533,-7.5553,-7.5522,-7.5528,-7.5531,-7.5521,-7.5529,-7.5563,-7.5587,-7.5617,-7.5718,-7.5716,-7.5768,-7.5787,-7.5802,-7.5815,-7.587,-7.5894,-7.5643,-7.5643,-7.5643,0,0,-7.5525,-7.5519,-7.5548,-7.5579,-7.5582,-7.5627,-7.5536,-7.5587,-7.562,-7.5538,-7.5607,-7.56,-7.5606,-7.5694,-7.5732,-7.5693,-7.5884,-7.5816,-7.5828,-7.5832,-7.5883,-7.5907,-7.5928,-7.565,-7.5649,-7.5647,0,0,-7.5677,-7.5677,-7.5746,-7.5751,-7.5758,-7.5737,-7.5754,-7.5747,-7.574,-7.5808,-7.5749,-7.5787,-7.5846,-7.5854,-7.5865,-7.6025,-7.5977,-7.6036,-7.6133,-7.6188,-7.6208,-7.6225,-7.6284,-7.6305,-7.6048,-7.6048,-7.6048,0,-7.5764,-7.5829,-7.5786,-7.5842,-7.5858,-7.5788,-7.5859,-7.5866,-7.5881,-7.5894,-7.585,-7.5925,-7.5924,-7.6014,-7.6053,-7.6064,-7.6083,-7.6036,-7.6209,-7.6226,-7.6241,-7.6296,-7.6318,-7.6055,-7.6054,-7.6053,-7.6053,0,-7.5937,-7.5984,-7.6039,-7.6058,-7.608,-7.6142,-7.611,-7.6137,-7.6106,-7.609,-7.6162,-7.6158,-7.6187,-7.6206,-7.6175,-7.6293,-7.6269,-7.6218,-7.6138,-7.6273,-7.6324,-7.6345,-7.6065,-7.6063,-7.6061,-7.6059,0,0,-7.6156,-7.6152,-7.6173,-7.6182,-7.6185,-7.6221,-7.6281,-7.6311,-7.6337,-7.635,-7.64,-7.6454,-7.6408,-7.6421,-7.639,-7.6438,-7.6567,-7.6381,-7.638,-7.6417,-7.6699,-7.6739,-7.6764,-7.6536,-7.6539,-7.6542,-7.67,0,-7.6306,-7.6409,-7.6374,-7.6479,-7.6523,-7.6458,-7.6511,-7.6519,-7.6507,-7.6542,-7.6528,-7.6568,-7.6502,-7.651,-7.6555,-7.6542,-7.6623,-7.653,-7.6583,-7.6585,-7.6584,-7.679,-7.6831,-7.698,-7.6719,-7.6722,-7.6725,0,-7.6494,-7.6517,-7.6628,-7.6626,-7.6643,-7.6692,-7.6718,-7.6752,-7.676,-7.6748,-7.6765,-7.6724,-7.6784,-7.6706,-7.6788,-7.6726,-7.6745,-7.6742,-7.6747,-7.6751,-7.6664,-7.6801,-7.7026,-7.7049,-7.6755,-7.6753,-7.6751,0,-7.6645,-7.6704,-7.6778,-7.6787,-7.6787,-7.6823,-7.6824,-7.6829,-7.685,-7.6873,-7.6886,-7.6915,-7.6932,-7.6955,-7.6924,-7.6869,-7.7013,-7.693,-7.7005,-7.7006,-7.7038,-7.7036,-7.727,-7.7049,-7.7049,-7.7048,-7.7048,0,-7.6816,-7.6887,-7.6846,-7.6892,-7.697,-7.6929,-7.7007,-7.7001,-7.7006,-7.705,-7.6996,-7.7038,-7.6994,-7.7033,-7.7009,-7.7082,-7.709,-7.7082,-7.7075,-7.7088,-7.7089,-7.71,-7.7089,-7.7054,-7.7053,-7.7052,-7.7051,0,-7.6997,-7.6973,-7.705,-7.7045,-7.7045,-7.7103,-7.7098,-7.7141,-7.7125,-7.7182,-7.7193,-7.7169,-7.7212,-7.7183,-7.7226,-7.721,-7.7307,-7.7285,-7.7305,-7.7299,-7.7376,-7.737,-7.7626,-7.7658,-7.7415,-7.7418,-7.742,0,-7.7109,-7.7162,-7.7163,-7.719,-7.7195,-7.7238,-7.726,-7.7222,-7.7248,-7.7263,-7.7305,-7.7343,-7.7372,-7.7444,-7.7431,-7.7464,-7.7443,-7.7531,-7.7447,-7.7459,-7.7446,-7.7444,-7.745,-7.7547,-7.755,-7.7553,-7.7555,0,-7.731,-7.7297,-7.7331,-7.7363,-7.7391,-7.7414,-7.7431,-7.7456,-7.7418,-7.745,-7.7494,-7.7517,-7.7562,-7.7602,-7.763,-7.7631,-7.7588,-7.7581,-7.76,-7.7614,-7.7624,-7.7622,-7.7352,-7.7575,-7.7573,-7.7572,-7.757,-7.757,-7.7461,-7.7507,-7.7515,-7.7556,-7.7567,-7.7585,-7.7626,-7.7617,-7.7654,-7.7688,-7.7664,-7.7717,-7.7726,-7.776,-7.7767,-7.7808,-7.7773,-7.78,-7.7807,-7.7815,-7.7827,-7.7617,-7.7813,-7.7812,-7.7812,-7.7811,-7.7811,0,-7.7661,-7.7664,-7.7703,-7.7731,-7.7764,-7.7721,-7.7739,-7.777,-7.7817,-7.783,-7.7861,-7.7913,-7.7952,-7.7943,-7.7978,-7.8013,-7.7994,-7.8023,-7.8021,-7.8022,-7.7855,-7.7836,-7.8038,-7.8038,-7.8038,-7.8038,-7.8038,-7.8038,-7.7769,-7.7845,-7.7832,-7.7913,-7.7915,-7.7968,-7.7982,-7.8,-7.801,-7.8072,-7.8104,-7.8098,-7.8103,-7.8138,-7.8173,-7.8169,-7.8185,-7.8223,-7.8212,-7.8056,-7.8034,-7.8012,-7.7994,-7.8226,-7.8226,-7.8375,-7.8377,-7.8378]}]]